TimeMDT,TemperatureF,Dew PointF,Humidity,Sea Level PressureIn,VisibilityMPH,Wind Direction,Wind SpeedMPH,Gust SpeedMPH,PrecipitationIn,Events,Conditions,WindDirDegrees,DateUTC
12:53 AM,33.1,28.9,85,30.09,10.0,NW,11.5,-,N/A,,Clear,320,2012-03-25 06:53:00
1:53 AM,33.1,28.9,85,30.07,10.0,NW,10.4,-,N/A,,Partly Cloudy,320,2012-03-25 07:53:00
2:53 AM,32.0,30.0,92,30.06,10.0,WNW,9.2,-,N/A,,Scattered Clouds,300,2012-03-25 08:53:00
3:53 AM,32.0,28.9,88,30.04,10.0,WNW,10.4,-,N/A,,Partly Cloudy,290,2012-03-25 09:53:00
4:53 AM,30.9,28.9,92,30.04,10.0,West,6.9,-,N/A,,Partly Cloudy,280,2012-03-25 10:53:00
5:53 AM,32.0,28.9,88,30.04,10.0,WSW,8.1,-,N/A,,Clear,240,2012-03-25 11:53:00
6:53 AM,33.1,28.9,85,30.05,10.0,WSW,6.9,-,N/A,,Clear,250,2012-03-25 12:53:00
7:53 AM,35.1,28.9,78,30.05,10.0,WSW,5.8,-,N/A,,Clear,250,2012-03-25 13:53:00
8:53 AM,36.0,30.0,79,30.04,10.0,Calm,Calm,-,N/A,,Clear,0,2012-03-25 14:53:00
9:53 AM,37.9,30.0,73,30.04,10.0,SW,3.5,-,N/A,,Clear,220,2012-03-25 15:53:00
10:53 AM,42.1,30.9,65,30.02,10.0,Calm,Calm,-,N/A,,Clear,0,2012-03-25 16:53:00
11:53 AM,45.0,30.9,58,29.99,10.0,Variable,4.6,-,N/A,,Clear,0,2012-03-25 17:53:00
12:53 PM,46.9,32.0,56,29.97,10.0,ENE,6.9,-,N/A,,Partly Cloudy,60,2012-03-25 18:53:00
1:53 PM,50.0,32.0,50,29.93,10.0,ENE,9.2,-,N/A,,Partly Cloudy,70,2012-03-25 19:53:00
2:53 PM,53.1,35.1,50,29.90,10.0,NE,10.4,-,N/A,,Partly Cloudy,50,2012-03-25 20:53:00
3:53 PM,57.0,36.0,45,29.86,10.0,East,15.0,19.6,N/A,,Partly Cloudy,90,2012-03-25 21:53:00
4:53 PM,57.0,35.1,44,29.85,10.0,East,12.7,-,N/A,,Partly Cloudy,90,2012-03-25 22:53:00
5:53 PM,57.0,36.0,45,29.82,10.0,East,13.8,-,N/A,,Partly Cloudy,80,2012-03-25 23:53:00
6:53 PM,55.9,37.0,49,29.79,10.0,ENE,12.7,-,N/A,,Partly Cloudy,70,2012-03-26 00:53:00
7:53 PM,51.1,37.0,59,29.80,10.0,NE,10.4,-,N/A,,Partly Cloudy,40,2012-03-26 01:53:00
8:53 PM,48.0,36.0,63,29.79,10.0,North,5.8,-,N/A,,Clear,10,2012-03-26 02:53:00
9:53 PM,48.0,35.1,61,29.76,10.0,North,5.8,-,N/A,,Clear,10,2012-03-26 03:53:00
10:53 PM,46.9,35.1,63,29.73,10.0,North,8.1,-,N/A,,Clear,360,2012-03-26 04:53:00
11:53 PM,44.1,35.1,71,29.71,10.0,NNW,9.2,-,N/A,,Clear,340,2012-03-26 05:53:00